CW9944 Porsgrunn NO current weather conditions

sailwx.info

Wind from 270

Air temperature 13.9° C
Dewpoint 8.5° C

Last reported at 2015-Jul-29 20:33 UTC.
Time now 2015-Jul-30 08:16 UTC

Location: N 59°07' E 009°39'.
View on Google Maps.

See reports from other nearby stations

  
Tides and Currents Weather Stations Pressure Air Temp Water Temp Dewpoint Dewpoint Depression Visibility Wind Speed Wind Dir Waves Ship Positions
date/time (UTC)wind fromknots sea level pressurealtimeterstation pressurevisibilityair tempwater tempwave heightnotes
2015-Jul-29 20:33 270 13.9
2015-Jul-29 20:23 249 13.9
2015-Jul-29 20:13 13.9
2015-Jul-29 20:03 315 13.9
2015-Jul-29 19:53 225 13.9
2015-Jul-29 19:43 270 0 gusting 0 13.9
2015-Jul-29 19:33 240 0 gusting 1 14.4
2015-Jul-29 19:23 272 0 gusting 0 14.4
2015-Jul-29 19:13 248 14.4
2015-Jul-29 19:03 250 0 gusting 1 14.4
2015-Jul-29 18:53 248 1 gusting 1 14.4
2015-Jul-29 18:43 225 14.4
2015-Jul-29 18:33 270 1 gusting 1 14.4
2015-Jul-29 18:23 230 14.4
2015-Jul-29 18:13 248 0 gusting 0 15.0
2015-Jul-29 18:03 270 15.0
2015-Jul-29 17:53 248 1 gusting 1 15.0
2015-Jul-29 17:43 270 15.0
2015-Jul-29 17:33 225 15.0
2015-Jul-29 17:23 248 0 gusting 2 15.6
2015-Jul-29 17:13 227 15.6
2015-Jul-29 17:03 248 0 gusting 6 15.6
2015-Jul-29 16:53 248 0 gusting 2 15.6
2015-Jul-29 16:43 225 15.6
2015-Jul-29 16:33 248 4 gusting 4 15.6
2015-Jul-29 16:23 270 15.6
2015-Jul-29 16:13 248 0 gusting 2 15.6
2015-Jul-29 16:03 302 0 gusting 2 15.6
2015-Jul-29 15:53 270 15.6
2015-Jul-29 15:43 270 15.6
2015-Jul-29 15:33 255 15.6
2015-Jul-29 15:23 287 15.6
2015-Jul-29 15:13 270 16.1
2015-Jul-29 15:03 287 16.1
2015-Jul-29 14:53 318 0 gusting 1 15.6
2015-Jul-29 14:43 022 0 gusting 1 15.6
2015-Jul-29 14:33 346 15.6
2015-Jul-29 14:23 334 15.6
2015-Jul-29 14:13 15.0
2015-Jul-29 14:03 033 0 gusting 4 15.0
2015-Jul-29 13:53 338 1 gusting 2 15.6
2015-Jul-29 13:43 15.6
2015-Jul-29 13:33 112 15.6
2015-Jul-29 13:23 014 15.0
2015-Jul-29 13:13 022 15.6
2015-Jul-29 13:03 239 2 gusting 2 15.6
2015-Jul-29 12:53 225 0 gusting 2 15.6
2015-Jul-29 12:43 225 2 gusting 5 15.6
2015-Jul-29 12:34 251 1 gusting 1 15.0
2015-Jul-29 12:24 280 15.0
2015-Jul-29 12:13 225 2 gusting 4 15.0
2015-Jul-29 12:03 225 2 gusting 6 15.0
2015-Jul-29 11:53 244 3 gusting 4 15.0
2015-Jul-29 11:43 248 1 gusting 2 15.6
2015-Jul-29 11:33 340 15.6
2015-Jul-29 11:23 292 5 gusting 7 15.6
2015-Jul-29 11:13 270 1 gusting 4 15.6
2015-Jul-29 11:03 270 2 gusting 8 15.0
2015-Jul-29 10:53 292 5 gusting 6 15.0
2015-Jul-29 10:43 258 0 gusting 6 14.4
2015-Jul-29 10:33 191 0 gusting 4 14.4
2015-Jul-28 09:03 248 3 gusting 4 15.6
2015-Jul-28 08:53 235 1 gusting 1 15.6
2015-Jul-28 08:43 270 15.6
2015-Jul-28 08:33 270 0 gusting 1 15.6
2015-Jul-28 08:23 324 0 gusting 2 15.6
2015-Jul-28 08:13 251 1 gusting 2 16.1
2015-Jul-28 08:03 270 5 gusting 6 16.1